INTELSAT 8 (IS-8) (25522 NORAD) Tracking and Keplerian Element Data

This shows tracking and keplerian element data for the satellite.

Feedback or suggestion? Click here.




ElementValue
Catalog25522
NameINTELSAT 8 (IS-8)
Epoch Orbit1871
Epoch Day348.87649642
Epoch Year2018
RAAN85.9229
Inclination2.2481
Eccentricity0.0295397
Argument of Perigee231.9394
Mean Anonmoly48.6506
Mean Motion0.95186779
Decay Rate-1.6E-06
L11 25522U 98065A 18348.87649642 -.00000160 00000-0 00000-0 0 9992
L22 25522 2.2481 85.9229 0295397 231.9394 48.6506 0.95186779 18714

Live tracking and technical data element details for INTELSAT 8 (IS-8) (NORAD 25522). INTELSAT 8 (IS-8) can be tracked NOW for your location showing map with azimuth and elevation plus other details from your city location.

Track the satellite on the map from your city or location and see movement details for azimuth, elevation, latitude, longitude, range, height, and movement on the map or in text.







IsCatalogInMostPopularTable: catalog: 25522, numindb: 54
Update: records affected: 1



GetName: 25522 INTELSAT 8 (IS-8)

Hit Count: updated at: Sun, 16 Dec 2018 11:35:49 GMT